Location: Koussan�
(15.2012°N, 12.5548°W)
Time: 12:34:55
(UTC+00:00)

SMAP - Pass Details

Date: 20 October 2020
Orbit: 681 x 683 km, 98.1° (Epoch: 27 November)

Event Time Altitude Azimuth Distance (km) Brightness Sun altitude
Rises 18:53:38 0° 179° (S) 3,032 6.5 -7.2°
Reaches altitude 10° 18:55:55 10° 185° (S) 2,118 5.8 -7.8°
Maximum altitude 19:00:23 48° 259° (W) 883 4.2 -8.9°
Drops below altitude 10° 19:04:52 10° 334° (NNW) 2,121 5.8 -9.9°
Sets 19:07:11 0° 340° (NNW) 3,036 6.6 -10.5°
